Regional Weather Roundup
Issued by NWS

Home | Current Version | Previous Version | Text Only | Print | Product List | Glossary Off
Versions: 1 2 3 4 5 6 7 8 9 10 11 12 13 14 15 16 17 18 19 20 21 22 23 24 25 26 27

000
ASUS45 KBOU 280707
RWRCO

WEATHER ROUNDUP FOR COLORADO
NATIONAL WEATHER SERVICE DENVER/BOULDER CO
100 AM MDT SAT MAY 28 2016

NOTE: "FAIR" INDICATES FEW OR NO CLOUDS BELOW 12000 FEET WITH NO
SIGNIFICANT WEATHER AND/OR OBSTRUCTIONS TO VISIBILITY.

COZ001>005-013-030-031-280800-
...NORTHWEST COLORADO...

CITY           SKY/WX    TMP DP  RH WIND       PRES   REMARKS
CRAIG          FAIR      41  37  86 SE8       30.05F
HAYDEN         FAIR      39  34  81 S5        30.07S
MEEKER         MOCLDY    40  36  86 E5        30.06S
MOUNT WERNER   NOT AVBL
STEAMBOAT SPGS CLOUDY    39  37  94 E3        30.08S
WALDEN         CLOUDY    34  32  93 S3        30.10S
$$

COZ006>008-011-280800-
...WEST CENTRAL VALLEYS...

CITY           SKY/WX    TMP DP  RH WIND       PRES   REMARKS
GRAND JUNCTION FAIR      48  43  82 E8        29.99R
MONTROSE       FAIR      47  34  60 SE8       30.06S
EAGLE          FAIR      39  37  93 CALM      30.11S
RIFLE          FAIR      44  35  70 S5        30.04R
DELTA          FAIR      51  44  75 N9        30.03S
NUCLA          FAIR      50  34  53 SE9       30.07S
$$

COZ017>023-064>068-280800-
...SOUTHWEST COLORADO...

CITY           SKY/WX    TMP DP  RH WIND       PRES   REMARKS
DURANGO        FAIR      40  32  73 N6        30.05S
CORTEZ         FAIR      45  33  63 CALM      30.02F
PAGOSA SPRINGS FAIR      36  35  96 CALM      30.10S
TELLURIDE      FAIR      38  32  78 SE5       30.18S
WOLF CREEK PAS FAIR      30  21  69 W6        30.27S WCI  24
$$

COZ009-010-012-014-032>034-037-058>063-280800-
...CENTRAL COLORADO...

CITY           SKY/WX    TMP DP  RH WIND       PRES   REMARKS
ASPEN          FAIR      34  30  85 SW6       30.10S WCI  29
BUENA VISTA    FAIR      33  29  85 CALM      30.10S
COPPER MTN     NOT AVBL
BERTHOUD PASS  CLOUDY    23  14  68 NW21G29   30.19S WCI   8
COTTONWOOD PAS FAIR      37  28  70 W6        30.15S
GUNNISON       MOCLDY    36  30  80 N5        30.14S
KREMMLING      CLOUDY    37  34  87 E5        30.12R
LEADVILLE      FAIR      27  25  92 NE7       30.15S WCI  19
MONARCH PASS   FAIR      28  27  93 W18       30.32S WCI  16
SALIDA         FAIR      41  35  77 CALM      30.16S
SUNLIGHT       FAIR      34  32  93 CALM      30.23S
WILKERSON PASS FAIR      30  27  86 NW8       30.19F WCI  23
$$

COZ069>075-280800-
...SAN LUIS VALLEY/SANGRE DE CRISTO MOUNTAINS...

CITY           SKY/WX    TMP DP  RH WIND       PRES   REMARKS
ALAMOSA        FAIR      36  34  92 S3        30.09S
LA VETA PASS   FAIR      32  32 100 S7G17     30.14S WCI  26
SAGUACHE       FAIR      37  32  81 NW10      30.11R
$$

COZ035-036-038>040-280800-
...NORTHERN COLORADO FRONT RANGE...

CITY           SKY/WX    TMP DP  RH WIND       PRES   REMARKS
DENVER INTL AP FAIR      45  40  82 SW9       29.94F
DMNS CITY PARK   N/A     47  40  78 SE8       29.94F
AURORA         PTCLDY    45  41  85 S7        29.97S
FRONT RANGE AP NOT AVBL
ERIE MUNI ARPT FAIR      44  41  88 CALM      29.93F
BOULDER MUN AP FAIR      52  36  54 SW9       29.93F
CENTENNIAL     FAIR      46  38  73 SW8       29.97F
BROOMFIELD     FAIR      46  37  71 NW7       29.95F
FORT COLLINS   FAIR      45  37  76 NE6       29.94S
LONGMONT       FAIR      46  41  82 CALM      29.95F
$$

COZ041-046-047-076>085-087-088-280800-
...PIKES PEAK/PALMER DIVIDE AND SOUTHERN FOOTHILLS...

CITY           SKY/WX    TMP DP  RH WIND       PRES   REMARKS
COLO. SPRINGS  MOCLDY    43  37  79 N6        29.99F
A. F. ACADEMY  FAIR      37  36  93 N7        29.99F
SCHRIEVER AFB  NOT AVBL
ELLICOTT       FAIR     N/A N/A N/A CALM      29.98F
FALCON         FAIR      40  35  84 NW6       30.02S
FORT CARSON    FAIR      45  37  74 N5        29.97F
LIMON          FAIR      39  37  92 CALM      29.96S
MONUMENT HILL  FAIR      37  34  87 SW5       30.02S
TRINIDAD       FAIR      43  39  86 W10       30.00F
$$

COZ042>045-048>051-090-091-280800-
...NORTHEAST COLORADO...

CITY           SKY/WX    TMP DP  RH WIND       PRES   REMARKS
GREELEY ARPT   FAIR      45  43  93 CALM      29.93F
AKRON          FAIR      44  40  85 NW8       29.93R
BURLINGTON     FAIR      47  43  86 NW8       29.90S
WRAY           NOT AVBL
STERLING       FAIR      45  43  93 CALM      29.91R
HOLYOKE        FAIR      54  48  82 NW9       29.89S
FORT MORGAN    FAIR      45  42  86 NW6       29.93S
$$

COZ086-089-092>099-280800-
...SOUTHEAST COLORADO...

CITY           SKY/WX    TMP DP  RH WIND       PRES   REMARKS
PUEBLO         FAIR      51  45  79 W5        29.94F
LA JUNTA       FAIR      50  46  86 SW6       29.93F
LAMAR          FAIR      45  43  93 W6        29.89F
SPRINGFIELD      N/A     45  40  82 NW9       29.93S
$$




USA.gov is the U.S. government's official web portal to all federal, state and local government web resources and services.